South Hill, VA

12:22 AM EST on November 19, 2017 (GMT -0500)
Mecklenburg-Brunswick Regional

Weather History for KAVC - April, 2013

Change the Weather History Date:

Saturday, April 13, 2013

  Actual Average (KEMV) Record (KEMV)
Temperature  
Mean Temperature 58 °F -  
Max Temperature 71 °F 69 °F 82 °F (1992)
Min Temperature 44 °F 40 °F 28 °F (1990)
Degree Days  
Heating Degree Days 8    
Growing Degree Days 8 (Base 50)    
Moisture  
Dew Point 43 °F    
Average Humidity 54    
Maximum Humidity 87    
Minimum Humidity 35    
Precipitation  
Precipitation 0.00 in - - ()
Sea Level Pressure  
Sea Level Pressure 29.95 in    
Wind  
Wind Speed 3 mph (WSW)    
Max Wind Speed 14 mph    
Max Gust Speed 20 mph    
Visibility 10 miles    
Events      
Averages and records for this station are not official NWS values.
T = Trace of Precipitation, MM = Missing Value Source: NWS Daily Summary

Daily Weather History Graph

Daily Weather History Graph

Search for Another Location

Airport or City:

Trip Planner

Search our weather history database for the weather conditions in past years. The results will help you decide how hot, cold, wet, or windy it might be!

Date:

Astronomy

Apr. 13, 2013 Rise Set
Actual Time 6:40 AM EDT 7:45 PM EDT
Civil Twilight 6:14 AM EDT 8:11 PM EDT
Nautical Twilight 5:42 AM EDT 8:43 PM EDT
Astronomical Twilight 5:09 AM EDT 9:16 PM EDT
Moon 8:35 AM EDT (4/13) 11:02 PM EDT (4/13)
Length of Visible Light 13h 57m
Length of Day
13h 04m
Waxing Crescent, 10% of the Moon is Illuminated
Apr 13
Waxing Crescent
Apr 18
First Quarter
Apr 25
Full
May 2
Last Quarter
May 9
New

Hourly Weather History & Observations

Time (EDT) Temp. Dew Point Humidity Pressure Visibility Wind Dir Wind Speed Gust Speed Precip Events Conditions
12:15 AM 66.2 °F 44.6 °F 46% 29.78 in 10.0 mi West 3.5 mph - N/A   Mostly Cloudy
12:35 AM 64.4 °F 44.6 °F 49% 29.80 in 10.0 mi WNW 3.5 mph - N/A   Scattered Clouds
12:55 AM 64.4 °F 42.8 °F 45% 29.81 in 10.0 mi WNW 5.8 mph - N/A   Scattered Clouds
1:15 AM 62.6 °F 41.0 °F 45% 29.82 in 10.0 mi WNW 4.6 mph - N/A   Scattered Clouds
1:35 AM 62.6 °F 39.2 °F 42% 29.83 in 10.0 mi West 4.6 mph - N/A   Scattered Clouds
1:55 AM 62.6 °F 39.2 °F 42% 29.84 in 10.0 mi West 4.6 mph - N/A   Scattered Clouds
2:15 AM 60.8 °F 39.2 °F 45% 29.84 in 10.0 mi Calm Calm - N/A   Scattered Clouds
2:35 AM 60.8 °F 39.2 °F 45% 29.85 in 10.0 mi Calm Calm - N/A   Scattered Clouds
2:55 AM 59.0 °F 39.2 °F 48% 29.87 in 10.0 mi Calm Calm - N/A   Scattered Clouds
3:15 AM 57.2 °F 41.0 °F 55% 29.87 in 10.0 mi Calm Calm - N/A   Scattered Clouds
3:35 AM 55.4 °F 42.8 °F 63% 29.88 in 10.0 mi Calm Calm - N/A   Scattered Clouds
3:55 AM 55.4 °F 41.0 °F 58% 29.89 in 10.0 mi Calm Calm - N/A   Scattered Clouds
4:15 AM 55.4 °F 41.0 °F 58% 29.89 in 10.0 mi NW 3.5 mph - N/A   Scattered Clouds
4:35 AM 55.4 °F 41.0 °F 58% 29.90 in 10.0 mi WNW 4.6 mph - N/A   Clear
4:55 AM 55.4 °F 41.0 °F 58% 29.91 in 10.0 mi Calm Calm - N/A   Clear
5:15 AM 48.2 °F 42.8 °F 82% 29.92 in 10.0 mi Calm Calm - N/A   Clear
5:35 AM 50.0 °F 41.0 °F 71% 29.92 in 10.0 mi Calm Calm - N/A   Clear
5:55 AM 50.0 °F 42.8 °F 76% 29.93 in 10.0 mi Calm Calm - N/A   Clear
6:15 AM 48.2 °F 41.0 °F 76% 29.93 in 10.0 mi Calm Calm - N/A   Clear
6:35 AM 48.2 °F 41.0 °F 76% 29.95 in 10.0 mi Calm Calm - N/A   Clear
6:55 AM 46.4 °F 41.0 °F 81% 29.96 in 10.0 mi Calm Calm - N/A   Clear
7:15 AM 44.6 °F 41.0 °F 87% 29.97 in 10.0 mi Calm Calm - N/A   Clear
7:35 AM 46.4 °F 42.8 °F 87% 29.98 in 10.0 mi Calm Calm - N/A   Clear
7:55 AM 48.2 °F 44.6 °F 87% 29.99 in 10.0 mi Calm Calm - N/A   Clear
8:15 AM 51.8 °F 44.6 °F 76% 29.99 in 10.0 mi Calm Calm - N/A   Clear
8:35 AM 57.2 °F 41.0 °F 55% 30.00 in 10.0 mi Calm Calm - N/A   Clear
8:55 AM 57.2 °F 41.0 °F 55% 30.00 in 10.0 mi Calm Calm - N/A   Clear
9:15 AM 59.0 °F 39.2 °F 48% 30.00 in 10.0 mi Calm Calm - N/A   Clear
9:35 AM 60.8 °F 39.2 °F 45% 30.00 in 10.0 mi NNW 4.6 mph - N/A   Clear
9:55 AM 60.8 °F 39.2 °F 45% 30.01 in 10.0 mi North 3.5 mph - N/A   Clear
10:15 AM 60.8 °F 39.2 °F 45% 30.01 in 10.0 mi WNW 5.8 mph - N/A   Clear
10:35 AM 62.6 °F 39.2 °F 42% 30.01 in 10.0 mi WNW 4.6 mph - N/A   Clear
10:55 AM 62.6 °F 41.0 °F 45% 30.01 in 10.0 mi SW 3.5 mph - N/A   Clear
11:15 AM 62.6 °F 39.2 °F 42% 30.01 in 10.0 mi NW 3.5 mph - N/A   Clear
11:35 AM 64.4 °F 41.0 °F 42% 30.01 in 10.0 mi NNW 5.8 mph - N/A   Clear
11:55 AM 64.4 °F 41.0 °F 42% 30.00 in 10.0 mi WSW 5.8 mph - N/A   Clear
12:15 PM 64.4 °F 41.0 °F 42% 30.00 in 10.0 mi WNW 4.6 mph - N/A   Clear
12:35 PM 66.2 °F 42.8 °F 43% 30.00 in 10.0 mi West 5.8 mph - N/A   Clear
12:55 PM 66.2 °F 42.8 °F 43% 29.99 in 10.0 mi WSW 4.6 mph - N/A   Clear
1:15 PM 66.2 °F 42.8 °F 43% 29.99 in 10.0 mi NW 3.5 mph - N/A   Clear
1:35 PM 66.2 °F 42.8 °F 43% 29.99 in 10.0 mi SW 6.9 mph - N/A   Clear
1:55 PM 66.2 °F 42.8 °F 43% 29.99 in 10.0 mi South 11.5 mph 17.3 mph N/A   Clear
2:15 PM 68.0 °F 42.8 °F 40% 29.98 in 10.0 mi WSW 8.1 mph - N/A   Clear
2:35 PM 68.0 °F 42.8 °F 40% 29.98 in 10.0 mi SW 4.6 mph - N/A   Clear
2:55 PM 69.8 °F 44.6 °F 40% 29.97 in 10.0 mi WSW 5.8 mph - N/A   Clear
3:15 PM 69.8 °F 44.6 °F 40% 29.96 in 10.0 mi SSW 13.8 mph 19.6 mph N/A   Clear
3:35 PM 69.8 °F 42.8 °F 38% 29.96 in 10.0 mi SW 11.5 mph 18.4 mph N/A   Clear
3:55 PM 71.6 °F 44.6 °F 38% 29.95 in 10.0 mi SW 10.4 mph 16.1 mph N/A   Clear
4:15 PM 71.6 °F 42.8 °F 35% 29.94 in 10.0 mi SW 6.9 mph - N/A   Clear
4:35 PM 71.6 °F 42.8 °F 35% 29.94 in 10.0 mi SSW 11.5 mph 18.4 mph N/A   Clear
4:55 PM 71.6 °F 42.8 °F 35% 29.94 in 10.0 mi SSW 11.5 mph - N/A   Clear
5:15 PM 69.8 °F 41.0 °F 35% 29.95 in 10.0 mi WSW 5.8 mph 16.1 mph N/A   Clear
5:35 PM 69.8 °F 42.8 °F 38% 29.95 in 10.0 mi SW 9.2 mph - N/A   Clear
5:55 PM 69.8 °F 42.8 °F 38% 29.94 in 10.0 mi WSW 9.2 mph - N/A   Clear
6:15 PM 69.8 °F 42.8 °F 38% 29.94 in 10.0 mi SSW 8.1 mph - N/A   Clear
6:35 PM 69.8 °F 42.8 °F 38% 29.94 in 10.0 mi SW 6.9 mph - N/A   Clear
6:55 PM 69.8 °F 42.8 °F 38% 29.95 in 10.0 mi South 5.8 mph - N/A   Clear
7:15 PM 66.2 °F 44.6 °F 46% 29.95 in 10.0 mi South 4.6 mph - N/A   Clear
7:35 PM 64.4 °F 44.6 °F 49% 29.95 in 10.0 mi Calm Calm - N/A   Clear
7:55 PM 60.8 °F 46.4 °F 59% 29.96 in 10.0 mi Calm Calm - N/A   Clear
8:15 PM 60.8 °F 46.4 °F 59% 29.96 in 10.0 mi Calm Calm - N/A   Clear
8:35 PM 57.2 °F 46.4 °F 67% 29.97 in 10.0 mi Calm Calm - N/A   Clear
8:55 PM 55.4 °F 46.4 °F 72% 29.98 in 10.0 mi Calm Calm - N/A   Clear
9:15 PM 55.4 °F 46.4 °F 72% 29.99 in 10.0 mi Calm Calm - N/A   Clear
9:35 PM 53.6 °F 46.4 °F 77% 30.00 in 10.0 mi Calm Calm - N/A   Clear
9:55 PM 55.4 °F 46.4 °F 72% 30.00 in 10.0 mi Calm Calm - N/A   Clear
10:15 PM 55.4 °F 46.4 °F 72% 30.01 in 10.0 mi Calm Calm - N/A   Clear
10:55 PM 53.6 °F 46.4 °F 77% 30.02 in 10.0 mi SW 3.5 mph - N/A   Clear
11:15 PM 51.8 °F 46.4 °F 82% 30.02 in 10.0 mi SSW 3.5 mph - N/A   Clear
11:35 PM 51.8 °F 44.6 °F 76% 30.03 in 10.0 mi Calm Calm - N/A   Clear
11:55 PM 53.6 °F 44.6 °F 72% 30.03 in 10.0 mi Calm Calm - N/A   Clear